Volver al catálogo

DMSP 5D-2 F11 DEB

ActivoSSO
NORAD 28308·DEBRIS·🇺🇸 United States

Lanzado Nov 28, 1991 desde Vandenberg Space Force Base

Loading…

Próximos Pases (próximas 24 horas)

TLE

ActualizadoSource: Space-Track

Época: Sep 14, 2026, 00:22 UTC

1 28308U 91082V   26257.01538950  .00000733  00000-0  29862-3 0  9997
2 28308  98.5598 285.5108 0015067 121.4872 268.5429 14.30329387161880

Sigue DMSP 5D-2 F11 DEB en tiempo real con AllMySat

Download on the App Store